Tracking 27107 objects as of 21-Mar-2023
HD Live streaming from Space Station
objects crossing your sky now

STARLINK-4279

Track STARLINK-4279 now!
10-day predictions
STARLINK-4279 is classified as:


NORAD ID: 53018
Int'l Code: 2022-076AJ
Perigee: 546.0 km
Apogee: 547.8 km
Inclination: 53.2 °
Period: 95.4 minutes
Semi major axis: 6917 km
RCS: Unknown
Launch date: July 7, 2022
Source: United States (US)
Launch site: AIR FORCE EASTERN TEST RANGE (AFETR)
Your satellite tracking list
Your tracking list is empty




NASA's NSSDC Master Catalog

Two Line Element Set (TLE):
1 53018U 22076AJ  23079.81504854  .00002244  00000-0  15898-3 0  9996
2 53018  53.2142 274.3088 0001311  90.8628 269.2514 15.08845968 39204
Source of the keplerian elements: AFSPC